map of JSY home
JSY - Airport
Location
City:  Syros Island, Notío Aigaío (Southern Aegean), Greece
ICAO:LGSO
IATA:JSY

Details
Type:Airport (Aerodrome, Airfield)
Latitude:37°25'22"N (37.422792)
Longitude:24°57'03"E (24.950936)
Datum:WGS 1984
Elevation:236 ft (72 m)
Variation:4.75°E (WMM2015v2 magnetic declination)
0.11° annual change
Runways:1
Longest:3542 × 98 ft (1080 × 30 m), paved

Time
Time Zone:UTC+2 (DST+3)
Local Time:

Weather
METAR:LGSO 041350Z AUTO 09016KT //// // ////// 16/12 Q1016 RE//

Related Locations
Nearby:
Farthest:TUB: 11409 mi / 18361 km
Tubuai, Tubuai Islands, Austral Islands, PF

Find:

   beyond  
but within

Other Information
Maps:
NOTAMs:
Links:
Sources:

  
  • flag of Greece
  

Sectional Chart

Flight Planning
at skyvector.com

Satellite Image

Google Maps Satellite view

 

Copyright © 2004-2019 Karl L. Swartz. All rights reserved.
The Great Circle Mapper name and logo are trademarks of the Great Circle Mapper.
All other trademarks mentioned herein belong to their respective owners.
Please see credits for attibutions and further copyright information.

  Follow gcmap on Facebook Follow gcmap on Twitter GCmap on LinkedIn

hCard Microformat

Geo Microformat